Probability
0 0 0 0 0 0 0 0 0 0 0 0 0 0 0 0 0 0 0 0 0 0 0 0 0 0 0 0 0 0 0 0 0 0 0 0 0 0 0 0 0 0 0
0 0 0 0 0 0 0 0 0 0 0 0 0 0 0 0 0 0 0 0 0 0 0 0 0 0 0 0 0 0 0 0 0 0 0 0 0 0 0 0 0 0 0
0 0 0 0 0 0 0 0 0 0 0 0 0 0 0 0 0 0 0 0 0 0 0 0 0 0 0 0 0 0 0 0 0 0 0 0 0 0 0 0 0 0 0
0 0 0 0 0 0 0 0 0 0 0 0 0 0 0 0 0 0 0 0 0 0 0 0 0 0 0 0 0 0 0 0 0 0 0 0 0 0 0 0 0 0 0
0 0 0 0 0 0 0 0 0 0 0 0 0 0 0 0 0 0 0 0 0 0 0 0 0 0 0 0 0 0 0 0 0 0 0 0 0 0 0 0 0 0 0
0 0 0 0 0 0 0 0 0 0 0 0 0 0 0 0 0 0 0 0 0 0 0 0 0 0 0 0 0 0 0 0 0 0 0 0 0 0 0 0 0 0 0
0 0 0 0 0 0 0 0 0 0 0 0 0 0 0 0 0 0 0 0 0 0 0 0 0 0 0 0 0 0 0 0 0 0 0 0 0 0 0 0 0 0 0
0 0 0 0 0 0 0 0 0 0 0 0 0 0 0 0 0 0 0 0 0 0 0 0 0 0 0 0 0 0 0 0 0 0 0 0 0 0 0 0 0 0 0
0 0 0 0 0 0 0 0 0 0 0 0 0 0 0 0 0 0 0 0 0 0 0 0 0 0 0 0 0 0 0 0 0 0 0 0 0 0 0 0 0 0 0
0 0 0 0 0 0 0 0 0 0 0 0 0 0 0 0 0 0 0 0 0 0 0 0 0 0 0 0 0 0 0 0 0 0 0 0 0 0 0 0 0 0 0
0 0 0 0 0 0 0 0 0 0 0 0 0 0 0 0 0 0 0 0 0 0 0 0 0 0 0 0 0 0 0 0 0 0 0 0 0 0 0 0 0 0 0
0 0 0 0 0 0 0 0 0 0 0 0 0 0 0 0 0 0 0 0 0 0 0 0 0 0 0 0 0 0 0 0 0 0 0 0 0 0 0 0 0 0 0
0 0 0 0 0 0 0 0 0 1 0 0 0 0 0 0 0 0 0 0 0 0 0 0 0 0 0 0 0 0 0 0 0 0 0 0 0 0 0 0 0 0 0
0 0 0 0 0 0 0 0 0 0 0 0 0 0 0 0 0 0 0 0 0 0 0 0 0 0 0 0 0 0 0 0 0 0 0 0 0 0 0 0 0 0 0
0 0 0 0 0 0 0 0 0 0 0 0 0 0 0 0 0 0 0 0 0 0 0 0 0 0 0 0 0 0 0 0 0 0 0 0 0 0 0 0 1 1 1
0 0 0 0 0 0 0 0 0 0 0 0 0 0 0 0 0 0 0 0 0 0 0 0 0 0 0 0 0 0 0 0 0 0 0 0 0 0 0 0 1 2 2
0 0 0 0 0 0 0 0 0 0 0 0 0 0 0 0 0 0 0 0 0 0 0 0 0 0 0 0 0 0 0 0 0 0 0 0 0 0 0 0 1 2 2
0 0 0 0 0 0 0 0 0 0 0 0 0 0 0 0 0 0 0 0 0 0 0 0 0 0 0 0 0 0 0 0 0 0 0 0 0 0 0 0 0 1 1
0 0 0 0 0 0 0 0 0 0 0 0 0 0 0 0 0 0 0 0 0 0 0 0 0 0 0 0 0 0 0 0 0 0 0 0 0 0 0 0 0 0 0
0 0 0 0 0 0 0 0 0 0 0 0 0 0 0 0 0 0 0 0 0 0 0 0 0 0 0 0 0 0 0 0 0 0 0 0 0 0 0 0 0 0 0
0 0 0 0 0 0 0 0 0 0 0 0 0 0 0 0 0 0 0 0 0 0 0 0 0 0 0 0 0 0 0 0 0 0 0 0 0 0 0 0 0 0 0
0 0 0 0 0 0 0 0 0 0 1 0 0 0 0 0 0 0 0 0 0 0 0 0 0 0 0 0 0 0 0 0 0 0 0 0 0 0 0 0 0 0 0
0 0 0 0 0 0 0 0 0 0 0 0 0 0 0 0 0 0 0 0 0 0 0 0 0 0 0 0 0 0 0 0 0 0 0 0 0 0 0 0 0 0 0
0 0 0 0 0 0 0 0 0 0 0 0 0 0 0 0 0 0 0 0 0 0 0 0 0 0 0 0 0 0 0 0 0 0 0 0 0 0 0 0 0 0 0
0 0 0 0 0 0 0 0 0 0 0 0 0 0 0 0 0 0 0 0 0 0 0 0 0 0 0 0 0 0 0 0 0 0 0 0 0 0 0 0 0 0 0
0 0 0 0 0 0 0 0 0 0 0 0 0 0 0 0 0 0 0 0 0 0 0 0 0 0 0 0 0 0 0 0 0 0 0 0 0 0 0 0 0 0 0
Wind_Speed
3 4 4 5 7 8 9 9 10 10 10 10 10 10 10 10 10 9 9 9 9 10 10 10 11 10 10 10 10 10 10 10 10 10 10 10 9 9 9 8 6 6 9
5 5 5 5 8 8 9 9 9 9 10 10 10 9 9 9 9 9 9 9 9 9 10 10 10 10 10 9 9 9 9 9 9 8 7 6 8 8 8 8 7 6 8
6 6 6 6 8 9 10 9 9 9 9 10 10 9 9 9 9 9 9 9 9 9 10 10 10 9 9 9 9 9 9 9 8 6 3 4 6 7 6 6 6 6 7
6 6 6 7 8 9 10 10 9 9 9 9 9 10 9 9 9 9 9 9 9 9 9 10 10 9 9 8 8 8 8 8 7 4 3 5 4 6 6 6 5 5 5
6 6 7 7 9 9 9 9 9 9 9 9 9 9 9 9 9 9 9 9 8 9 9 9 9 9 8 8 8 8 7 7 4 3 4 4 4 5 5 5 5 5 5
6 6 7 7 9 9 9 9 9 8 8 8 8 8 8 8 9 8 8 8 8 8 8 8 8 8 7 7 7 7 7 6 3 3 4 4 4 5 5 4 4 3 3
6 6 7 8 8 8 8 8 8 8 8 8 8 8 8 8 8 8 8 8 8 8 7 7 7 7 7 7 7 7 7 5 4 3 3 3 5 6 5 4 3 3 3
6 6 6 9 9 9 9 8 8 8 8 8 8 9 8 8 8 7 7 7 7 7 7 7 6 6 6 6 6 6 6 5 3 3 3 3 6 6 5 5 4 3 3
6 6 5 5 6 8 9 9 8 8 8 8 8 8 8 8 8 8 7 7 6 6 7 7 6 6 5 5 5 5 5 4 3 3 3 3 5 5 5 5 5 4 3
6 5 5 5 4 4 5 8 8 8 8 8 8 8 7 7 7 7 6 7 7 6 6 6 6 5 5 5 5 4 3 3 3 3 3 4 5 5 5 5 5 5 4
5 5 4 4 4 3 4 5 6 7 7 6 6 7 4 3 3 4 7 7 7 6 6 6 5 5 4 3 4 4 2 2 3 3 3 6 6 5 5 5 5 5 5
4 4 3 3 3 3 3 2 2 3 4 4 3 3 2 2 3 3 5 6 5 5 4 5 4 3 2 2 2 1 2 3 2 2 4 7 6 6 5 5 5 5 5
4 4 3 3 3 3 2 2 2 2 2 3 3 3 2 2 2 2 2 2 2 3 3 2 2 2 3 3 2 2 3 2 2 2 4 7 7 7 6 6 6 5 5
4 4 4 3 3 3 2 2 2 2 2 2 3 3 2 2 2 2 2 3 3 2 3 2 2 3 3 2 3 3 3 2 2 2 3 7 7 8 7 7 7 7 7
3 4 4 4 4 2 2 2 2 2 2 2 2 3 3 2 2 2 2 2 3 3 3 3 2 3 3 2 2 3 3 3 3 3 2 5 7 8 8 8 8 8 9
3 3 3 3 4 3 2 1 1 1 2 2 2 4 3 3 2 2 2 2 3 3 3 3 3 3 2 2 2 3 3 3 3 3 3 2 4 7 8 9 9 9 9
2 2 3 3 3 3 3 2 2 2 2 2 2 3 4 4 3 3 2 3 3 3 3 3 3 3 2 2 2 3 3 3 3 3 3 3 2 4 6 8 9 10 10
2 2 3 2 3 3 3 2 2 2 2 2 2 3 4 4 4 2 2 3 4 3 3 3 3 3 3 2 2 3 2 2 2 2 2 2 3 3 3 6 8 9 9
2 2 2 3 3 3 2 2 2 2 3 2 3 3 3 4 4 3 2 3 3 3 3 3 3 3 3 3 3 3 2 2 2 2 2 2 3 3 3 4 6 7 9
2 2 2 3 3 3 2 2 2 2 2 2 2 3 4 3 4 3 3 4 3 3 3 3 4 4 4 4 3 3 2 2 2 2 2 2 2 3 4 4 4 4 7
2 2 2 2 3 3 2 2 2 2 2 2 2 3 4 4 4 3 3 3 3 3 3 4 4 4 4 4 3 3 3 2 2 2 2 2 2 3 4 4 4 4 4
2 2 2 2 2 2 2 2 1 2 1 1 2 3 4 4 4 3 4 3 4 3 4 4 4 3 3 3 3 3 3 3 1 2 2 2 3 3 3 4 4 4 5
2 2 2 2 2 2 3 1 1 1 1 1 2 3 3 4 3 3 4 3 4 3 3 4 4 3 3 3 3 3 3 3 4 2 2 2 3 3 3 3 4 5 5
2 2 2 2 3 3 2 1 1 1 2 2 2 2 3 3 3 3 3 3 3 3 4 4 4 4 3 3 2 2 3 4 4 4 2 2 4 4 4 4 4 4 5
2 2 2 2 3 3 2 2 1 1 1 1 2 3 2 2 3 4 3 3 3 3 3 4 4 4 3 3 3 3 3 3 4 5 5 5 4 3 4 5 4 4 5
2 2 2 2 3 3 3 2 2 2 2 2 3 3 3 2 3 4 4 3 3 3 4 4 3 4 3 3 3 3 3 3 3 4 6 6 6 4 5 4 4 4 4
Wind_Direction
126 119 94 106 109 111 107 104 105 104 101 99 97 93 91 88 86 85 82 79 78 79 80 78 76 73 72 70 68 65 63 61 57 55 54 55 54 54 56 54 45 64 58
127 121 95 101 102 103 105 104 107 107 104 100 99 97 93 90 86 84 80 77 77 76 76 75 73 73 72 68 65 61 60 59 54 47 42 65 60 51 50 47 39 48 52
123 119 114 91 95 95 97 98 102 102 101 98 96 94 92 90 86 81 78 76 75 73 73 70 69 69 69 64 61 58 57 53 48 35 6 53 63 52 43 41 43 46 44
119 118 109 88 91 93 93 91 91 94 94 94 93 91 88 86 82 78 74 71 72 71 70 68 68 67 66 64 60 56 54 49 40 4 30 45 46 49 34 37 37 40 37
117 110 96 84 91 91 89 89 87 86 86 86 87 87 84 82 77 76 72 68 66 67 66 65 66 65 63 61 58 54 49 44 25 354 37 33 36 42 27 32 37 35 28
111 102 93 77 87 87 85 85 84 82 83 82 81 80 78 76 73 70 66 63 60 63 63 61 61 62 60 57 54 50 45 34 343 29 30 24 26 31 14 21 28 27 20
99 92 90 69 75 78 80 80 78 75 79 78 75 73 73 73 71 68 63 58 58 55 57 56 57 55 54 52 47 43 38 14 359 22 20 18 25 13 359 3 6 10 3
95 92 91 69 65 66 66 69 68 68 73 73 71 69 69 69 68 64 58 53 54 51 49 48 50 50 47 46 43 40 33 357 357 12 11 21 25 359 354 356 0 359 355
86 84 84 86 80 67 62 57 60 61 64 67 66 63 60 61 60 56 51 47 46 45 44 43 45 45 43 42 40 39 31 353 339 7 4 11 12 352 355 355 1 1 359
79 76 72 73 78 85 83 63 58 60 60 62 61 57 56 58 58 52 46 43 41 40 38 37 41 41 38 38 33 27 5 302 357 3 1 13 359 351 356 356 354 356 352
73 69 69 70 68 71 82 74 68 67 61 63 67 59 60 61 57 55 41 33 32 32 32 35 35 33 28 50 36 8 319 342 2 2 359 5 354 352 355 352 356 353 356
67 60 59 61 61 65 69 82 77 77 72 61 60 62 55 45 38 28 45 30 27 23 24 31 27 24 350 10 39 335 341 349 349 3 8 6 355 354 355 353 353 356 2
71 55 39 49 59 62 69 67 67 70 65 56 48 45 42 40 35 25 28 30 19 9 0 9 10 4 358 353 347 352 351 343 348 353 9 9 357 353 354 355 353 350 349
64 53 37 30 48 56 58 63 57 56 58 54 42 34 35 31 19 20 11 7 0 355 348 345 342 349 347 348 345 345 346 341 341 343 10 13 357 352 351 352 352 350 345
58 46 36 29 31 42 58 55 58 52 52 54 44 32 27 22 6 10 9 2 355 348 341 335 334 335 334 341 340 337 336 336 332 328 352 23 5 357 352 351 350 349 346
45 34 25 29 29 29 44 61 60 53 53 47 44 34 28 20 11 5 5 0 353 344 336 331 332 326 324 330 330 330 323 322 326 323 325 3 19 5 359 355 351 347 343
41 33 22 21 28 30 26 42 57 50 48 46 41 34 31 25 15 11 5 358 349 338 333 330 333 324 321 323 324 324 320 319 321 320 323 330 340 10 6 357 353 349 345
50 37 29 24 26 27 27 29 52 48 44 37 34 32 29 25 16 13 8 360 347 338 336 333 330 325 318 316 317 317 313 313 310 314 321 329 328 333 355 359 350 346 343
45 35 33 24 21 15 19 36 49 51 48 40 34 29 20 19 12 5 360 355 346 345 344 338 331 321 315 315 311 312 312 306 308 315 313 320 325 330 328 347 347 347 344
48 35 36 26 20 11 13 25 42 43 40 38 35 25 18 14 10 360 357 354 350 344 344 339 331 328 314 311 302 297 294 291 298 306 308 316 324 326 327 329 327 334 341
39 35 28 19 16 13 7 359 8 3 11 22 23 24 20 16 10 4 359 352 349 345 340 334 327 330 334 327 299 294 277 264 274 302 313 315 321 328 330 332 330 329 329
23 20 18 5 3 1 351 344 343 331 343 15 19 17 17 14 8 4 0 352 347 338 344 343 334 317 327 340 314 298 289 258 247 304 307 313 322 325 327 334 334 333 331
11 356 4 357 345 352 358 5 21 20 347 358 1 3 7 3 7 6 354 349 343 339 338 339 333 320 314 325 333 313 305 306 315 281 307 315 327 323 319 319 324 326 328
353 346 4 2 1 5 3 354 338 338 338 343 344 349 357 5 3 1 354 348 343 342 341 338 337 326 318 313 318 312 300 306 299 302 296 317 321 313 315 317 321 325 327
1 348 3 15 15 11 7 0 339 350 354 347 348 348 354 6 7 2 357 352 348 343 344 341 336 333 330 320 314 309 303 295 290 285 293 305 308 307 311 310 313 317 324
11 360 2 19 19 11 14 15 15 19 5 352 350 348 348 355 2 4 357 354 349 344 342 336 334 333 330 325 318 317 313 309 304 291 287 299 301 304 305 303 310 320 327